Location: Amsterdam
(30.7274°N, 84.4357°W)
Time: 04:59:52
(UTC+00:00)

Altair - Visible Passes

Search period start: 06 June 2026 00:00
Search period end: 16 June 2026 00:00
Orbit: 1501 x 1682 km, 47.2° (Epoch: 5 June)

Date Brightness Start Highest point End Pass type
(mag) Time Alt. Az. Time Alt. Az. Time Alt. Az.
6 Jun 8.4 01:34:00 10° SSE 01:40:01 19° SE 01:46:06 10° E visible
6 Jun 7.3 03:34:23 10° SW 03:43:38 82° SE 03:53:16 10° NE visible
6 Jun 8.5 05:40:27 10° W 05:49:09 40° NNW 05:58:11 10° NE visible
6 Jun 9.2 07:48:16 10° NW 07:56:29 30° N 08:04:55 10° ENE visible
6 Jun 8.7 09:53:59 10° NW 10:03:32 50° NNE 10:13:16 10° ESE visible
7 Jun 8.5 01:09:36 10° SSE 01:14:54 17° ESE 01:20:16 10° E visible
7 Jun 7.3 03:09:13 10° SW 03:18:25 75° SE 03:27:58 10° NE visible
7 Jun 8.5 05:15:01 10° W 05:23:46 42° NNW 05:32:52 10° NE visible
7 Jun 9.1 07:22:53 10° NW 07:31:00 29° N 07:39:23 10° ENE visible
7 Jun 8.7 09:28:44 10° NW 09:38:09 47° NNE 09:47:46 10° E visible
8 Jun 7.3 02:44:06 10° SW 02:53:13 69° SE 03:02:40 10° NE visible
8 Jun 8.4 04:49:35 10° W 04:58:24 44° NNW 05:07:35 10° NE visible
8 Jun 9.1 06:57:27 10° WNW 07:05:32 29° N 07:13:53 10° ENE visible
8 Jun 8.7 09:03:28 10° NW 09:12:46 44° NNE 09:22:16 10° E visible
9 Jun 7.4 02:19:00 10° SSW 02:28:02 63° SE 02:37:21 10° ENE visible
9 Jun 8.3 04:24:10 10° W 04:33:03 47° NNW 04:42:17 10° NE visible
9 Jun 9.1 06:32:02 10° WNW 06:40:04 29° N 06:48:23 10° NE visible
9 Jun 8.8 08:38:13 10° NW 08:47:22 42° NNE 08:56:45 10° E visible
10 Jun 7.4 01:53:56 10° SSW 02:02:51 57° SE 02:12:01 10° ENE visible
10 Jun 8.2 03:58:46 10° WSW 04:07:42 50° NNW 04:17:00 10° NE visible
10 Jun 9.1 06:06:35 10° WNW 06:14:36 29° N 06:22:54 10° NE visible
10 Jun 8.8 08:12:57 10° NW 08:21:58 40° NNE 08:31:12 10° E visible
11 Jun 7.5 01:28:54 10° SSW 01:37:41 52° SE 01:46:40 10° ENE visible
11 Jun 8.1 03:33:24 10° WSW 03:42:23 53° NNW 03:51:43 10° NE visible
11 Jun 9.1 05:41:08 10° WNW 05:49:09 30° N 05:57:26 10° NE visible
11 Jun 8.9 07:47:41 10° NW 07:56:33 38° NNE 08:05:39 10° E visible
11 Jun 7.7 09:52:26 10° NW 10:02:22 89° NE 10:12:33 10° SE visible
12 Jun 7.7 01:03:55 10° SSW 01:12:31 47° SE 01:21:18 10° ENE visible
12 Jun 8.0 03:08:02 10° WSW 03:17:04 57° NNW 03:26:26 10° NE visible
12 Jun 9.1 05:15:40 10° WNW 05:23:42 30° N 05:31:59 10° NE visible
12 Jun 8.9 07:22:25 10° NW 07:31:08 36° NNE 07:40:05 10° E visible
12 Jun 7.8 09:27:11 10° NW 09:37:05 83° NE 09:47:15 10° SE visible
13 Jun 7.9 02:42:41 10° WSW 02:51:46 61° NNW 03:01:11 10° NE visible
13 Jun 9.0 04:50:12 10° WNW 04:58:15 31° N 05:06:33 10° NE visible
13 Jun 8.9 06:57:07 10° NW 07:05:42 35° NNE 07:14:32 10° E visible
13 Jun 7.8 09:01:57 10° NW 09:11:48 77° NE 09:21:56 10° SE visible
14 Jun 7.9 02:17:22 10° WSW 02:26:29 65° NW 02:35:55 10° NE visible
14 Jun 9.0 04:24:44 10° WNW 04:32:49 31° NNW 04:41:09 10° NE visible
14 Jun 9.0 06:31:49 10° NW 06:40:16 33° NNE 06:48:58 10° ENE visible
14 Jun 7.8 08:36:42 10° NW 08:46:30 72° NE 08:56:34 10° ESE visible
15 Jun 7.8 01:52:04 10° WSW 02:01:13 70° NW 02:10:39 10° NE visible
15 Jun 9.0 03:59:16 10° WNW 04:07:23 32° NNW 04:15:46 10° NE visible
15 Jun 9.0 06:06:31 10° NW 06:14:49 32° NNE 06:23:24 10° ENE visible
15 Jun 7.9 08:11:29 10° NW 08:21:12 67° NE 08:31:12 10° ESE visible
